Starlink 5019

operational
NORAD ID: 55407 Int'l Des: 2023-014 Owner: SPXS Country: US Constellation: starlink
LEOCIRCULAR

Starlink 5019について

説明を読み込み中...

リアルタイム位置

3D地球を読み込み中...

次回通過

高度履歴

Altitude vs Time

uPlot chart will show altitude changes over time

軌道要素

1 55407U 23014S 25302.50918084 -.00000574 00000-0 -40283-4 0 9997
2 55407 70.0011 35.3018 0002971 266.7974 93.2845 14.98332663152400
Epoch: Oct 29, 2025 • Age: 15 hours

現在のステータス

高度 585.6 km
速度 7.57 km/s
衛星直下点 69.83°N, 29.89°E
打ち上げ日 Jan 31, 2023
運用期間 2.7 years
タイプ internet

技術仕様

分類 Payload
質量 305.00 kg
乾燥質量 290.00 kg
総質量 305.00 kg
長さ 0.20 m
直径 2.80 m
スパン 9.00 m
形状 Box + pan
製造者 SPXS
バスタイプ Starlink
フェーズステータス In Orbit
所有者/国 SPXS/US

大規模コンステレーション

Loading constellations...